logo liguriameteo

Diretta Meteo Villacoublay, Franciadomenica 10 maggio ore 11:30

Mappa
Sereno 16 °C Molto Nuvoloso 24 Ore: T.min 12 T.max 23
Ponente Est/Nord-Est Km/h 14.8 Punto di rugiada: 11 °C Umidità: 72% Visibilità: 10 Km
Il sole sorge alle: 06:14 Il sole tramonta alle: 21:20
10 Maggio 2026 11:30 tempo osservato: Molto Nuvoloso Molto Nuvoloso 16 72 1010 vento: Nord E/NE 14.8
10 Maggio 2026 11:00 tempo osservato: Sereno Sereno 15 76 1010 vento: Nord NE 14.8
10 Maggio 2026 10:30 tempo osservato: Sereno Sereno 14 82 1010 vento: Nord E/NE 16.7
10 Maggio 2026 10:00 tempo osservato: Sereno Sereno 14 76 1010 vento: Nord E/NE 16.7
10 Maggio 2026 09:30 tempo osservato: Sereno Sereno 13 87 1010 vento: Nord NE 13
10 Maggio 2026 09:00 tempo osservato: Sereno Sereno 12 87 1010 vento: Nord NE 11.1
10 Maggio 2026 08:30 tempo osservato: Pioggia Pioggia 13 76 1010 vento: Nord N 11.1
10 Maggio 2026 08:00 tempo osservato: Sereno Sereno 13 71 1010 vento: Nord NE 16.7
10 Maggio 2026 07:30 tempo osservato: Sereno Sereno 13 71 1010 vento: Nord N/NE 14.8
10 Maggio 2026 07:00 tempo osservato: Sereno Sereno 13 71 1010 vento: Nord NE 11.1
10 Maggio 2026 06:30 tempo osservato: Sereno Sereno 13 66 1010 vento: Nord N/NE 14.8
10 Maggio 2026 06:00 tempo osservato: Sereno Sereno 14 67 1010 vento: Nord N/NE 14.8
10 Maggio 2026 05:30 tempo osservato: Sereno Sereno 14 62 1010 vento: Nord N/NE 13
10 Maggio 2026 05:00 tempo osservato: Sereno Sereno 14 62 1010 vento: Nord NE 13
10 Maggio 2026 04:30 tempo osservato: Sereno Sereno 15 62 1010 vento: Nord NE 14.8
10 Maggio 2026 04:00 tempo osservato: Sereno Sereno 15 62 1010 vento: Nord NE 16.7
10 Maggio 2026 03:30 tempo osservato: Sereno Sereno 15 62 1011 vento: Nord NE 18.5
10 Maggio 2026 03:00 tempo osservato: Sereno Sereno 16 58 1011 vento: Nord NE 16.7
10 Maggio 2026 02:30 tempo osservato: Sereno Sereno 16 58 1011 vento: Nord NE 18.5
10 Maggio 2026 02:00 tempo osservato: Sereno Sereno 16 63 1012 vento: Nord NE 18.5
10 Maggio 2026 01:30 tempo osservato: Sereno Sereno 17 59 1012 vento: Nord NE 18.5
10 Maggio 2026 01:00 tempo osservato: Sereno Sereno 17 55 1012 vento: Nord NE 20.3
10 Maggio 2026 00:30 tempo osservato: Sereno Sereno 17 59 1012 vento: Nord NE 11.1
10 Maggio 2026 00:00 tempo osservato: Sereno Sereno 18 55 1012 vento: Nord NE 16.7
9 Maggio 2026 23:30 tempo osservato: Sereno Sereno 19 52 1012 vento: Nord NE 18.5
9 Maggio 2026 23:00 tempo osservato: Sereno Sereno 19 52 1012 vento: Nord E/NE 18.5
9 Maggio 2026 22:30 tempo osservato: Sereno Sereno 19 55 1012 vento: Nord NE 16.7
9 Maggio 2026 22:00 tempo osservato: Sereno Sereno 18 63 1012 vento: Nord E/NE 13
9 Maggio 2026 21:30 tempo osservato: Sereno Sereno 19 55 1012 vento: Nord E 11.1
9 Maggio 2026 21:00 tempo osservato: Sereno Sereno 20 52 1012 vento: Nord E 16.7
9 Maggio 2026 20:30 tempo osservato: Sereno Sereno 21 49 1012 vento: Nord E 14.8
9 Maggio 2026 20:00 tempo osservato: Sereno Sereno 21 49 1012 vento: Nord E 18.5
9 Maggio 2026 19:30 tempo osservato: Sereno Sereno 22 46 1012 vento: Nord E 13
9 Maggio 2026 19:00 tempo osservato: Sereno Sereno 23 46 1012 vento: Nord E 14.8
9 Maggio 2026 18:30 tempo osservato: Sereno Sereno 23 46 1012 vento: Nord E 14.8
9 Maggio 2026 18:00 tempo osservato: Sereno Sereno 22 49 1012 vento: Nord E 18.5
9 Maggio 2026 17:30 tempo osservato: Sereno Sereno 23 46 1012 vento: Nord E 14.8
9 Maggio 2026 17:00 tempo osservato: Sereno Sereno 22 40 1013 vento: Nord E/SE 11.1
9 Maggio 2026 16:30 tempo osservato: Sereno Sereno 23 43 1012 vento: Nord E 16.7
9 Maggio 2026 16:00 tempo osservato: Sereno Sereno 23 43 1012 vento: Nord E 18.5
9 Maggio 2026 15:30 tempo osservato: Sereno Sereno 23 43 1013 vento: Nord E 20.3
9 Maggio 2026 15:00 tempo osservato: Sereno Sereno 23 40 1013 vento: Nord E/SE 14.8
9 Maggio 2026 14:30 tempo osservato: Sereno Sereno 23 40 1013 vento: Nord E/SE 16.7
9 Maggio 2026 14:00 tempo osservato: Sereno Sereno 23 43 1013 vento: Nord E/SE 14.8
9 Maggio 2026 13:30 tempo osservato: Sereno Sereno 22 46 1014 vento: Nord E 18.5
9 Maggio 2026 13:00 tempo osservato: Sereno Sereno 21 52 1014 vento: Nord E 14.8
9 Maggio 2026 12:30 tempo osservato: Sereno Sereno 20 56 1014 vento: Nord E 11.1
9 Maggio 2026 12:00 tempo osservato: Sereno Sereno 19 55 1014 vento: Nord E 11.1